Cahokia, IL

5:45 AM CST on November 13, 2019 (GMT -0600)
Saint Louis Downtown

Weather History for KCPS - October, 2019

Change the Weather History Date:

Tuesday, October 22, 2019

  Actual Average Record
Temperature  
Mean Temperature 52 °F -  
Max Temperature 62 °F 68 °F 86 °F (1963)
Min Temperature 44 °F 51 °F 28 °F (1997)
Degree Days  
Heating Degree Days 12    
Growing Degree Days 2 (Base 50)    
Moisture  
Dew Point 35 °F    
Average Humidity 52    
Maximum Humidity 66    
Minimum Humidity 30    
Precipitation  
Precipitation 0.00 in - - ()
Sea Level Pressure  
Sea Level Pressure 29.89 in    
Wind  
Wind Speed 9 mph (WSW)    
Max Wind Speed 15 mph    
Max Gust Speed 29 mph    
Visibility 10 miles    
Events      
Averages and records for this station are not official NWS values.
T = Trace of Precipitation, MM = Missing Value Source: NWS Daily Summary

Daily Weather History Graph

Daily Weather History Graph

Search for Another Location

Airport or City:

Astronomy

Oct. 22, 2019 Rise Set
Actual Time 7:16 AM CDT 6:13 PM CDT
Civil Twilight 6:49 AM CDT 6:40 PM CDT
Nautical Twilight 6:18 AM CDT 7:10 PM CDT
Astronomical Twilight 5:47 AM CDT 7:41 PM CDT
Moon 12:32 AM CDT (10/22) 3:17 PM CDT (10/22)
Length of Visible Light 11h 50m
Length of Day
10h 56m
Last Quarter, 37% of the Moon is Illuminated
Oct 22
Last Quarter
Oct 27
New
Nov 4
First Quarter
Nov 12
Full
Nov 19
Last Quarter

Hourly Weather History & Observations

Time (CDT) Temp. Windchill Dew Point Humidity Pressure Visibility Wind Dir Wind Speed Gust Speed Precip Events Conditions
12:53 AM 53.1 °F - 39.9 °F 61% 29.77 in 10.0 mi WSW 6.9 mph - N/A   Scattered Clouds
1:53 AM 53.1 °F - 37.9 °F 57% 29.77 in 10.0 mi WSW 6.9 mph - N/A   Clear
2:53 AM 52.0 °F - 37.9 °F 59% 29.77 in 10.0 mi WSW 5.8 mph 16.1 mph N/A   Mostly Cloudy
3:53 AM 53.1 °F - 37.9 °F 57% 29.77 in 10.0 mi West 8.1 mph 19.6 mph N/A   Overcast
4:53 AM 53.1 °F - 37.9 °F 57% 29.79 in 10.0 mi West 15.0 mph 25.3 mph N/A   Overcast
5:53 AM 52.0 °F - 37.9 °F 59% 29.81 in 10.0 mi West 9.2 mph 20.7 mph N/A   Mostly Cloudy
6:53 AM 50.0 °F - 37.9 °F 63% 29.83 in 10.0 mi West 9.2 mph 19.6 mph N/A   Clear
7:53 AM 48.9 °F - 37.9 °F 66% 29.85 in 10.0 mi WSW 9.2 mph - N/A   Clear
8:53 AM 50.0 °F - 37.9 °F 63% 29.88 in 10.0 mi West 13.8 mph 21.9 mph N/A   Partly Cloudy
9:53 AM 52.0 °F - 37.0 °F 57% 29.89 in 10.0 mi West 10.4 mph 28.8 mph N/A   Partly Cloudy
10:53 AM 54.0 °F - 37.0 °F 53% 29.91 in 10.0 mi West 10.4 mph 23.0 mph N/A   Clear
11:53 AM 55.9 °F - 36.0 °F 47% 29.92 in 10.0 mi West 13.8 mph 24.2 mph N/A   Clear
12:53 PM 57.9 °F - 37.0 °F 46% 29.89 in 10.0 mi WSW 11.5 mph 23.0 mph N/A   Clear
1:53 PM 60.1 °F - 37.0 °F 42% 29.88 in 10.0 mi West 15.0 mph 24.2 mph N/A   Clear
2:53 PM 60.1 °F - 34.0 °F 38% 29.89 in 10.0 mi WSW 13.8 mph 25.3 mph N/A   Partly Cloudy
3:53 PM 61.0 °F - 28.9 °F 30% 29.91 in 10.0 mi West 11.5 mph 24.2 mph N/A   Clear
5:53 PM 57.9 °F - 26.1 °F 30% 29.93 in 10.0 mi West 11.5 mph 20.7 mph N/A   Clear
6:53 PM 55.9 °F - 27.0 °F 33% 29.96 in 10.0 mi West 8.1 mph 20.7 mph N/A   Clear
7:53 PM 53.1 °F - 28.9 °F 40% 29.98 in 10.0 mi WSW 4.6 mph - N/A   Clear
8:53 PM 48.9 °F - 30.9 °F 50% 29.99 in 10.0 mi Calm Calm - N/A   Clear
9:53 PM 48.0 °F - 32.0 °F 54% 30.01 in 10.0 mi SSW 3.5 mph - N/A   Clear
10:53 PM 44.1 °F - 32.0 °F 63% 30.03 in 10.0 mi Calm Calm - N/A   Clear
11:53 PM 44.1 °F 41.5 °F 33.1 °F 65% 30.02 in 10.0 mi SSW 4.6 mph - N/A   Clear